Flag for Austria Weather past 2 weeks in Klagenfurt, Carinthia, Austria

Now
61 °F

Partly cloudy.


Feels Like: 61 °F
Forecast: 53 / 60 °F
Wind: 2 mph from Northwest

Location: Klagenfurt-Flughafen

Current Time: Aug 31, 2014 at 6:46:22 AM

Latest Report: Aug 31, 2014 at 5:50 AM


Visibility: N/A

Pressure: 30.04 "Hg

Humidity: 94%

Dew point: 59 °F

Location of KlagenfurtLocation

Historic Weather in Klagenfurt — Graph

°F

Klagenfurt temperature yesterday

Maximum temperature yesterday: 79 °F (at 4:50 PM)
Minimum temperature yesterday: 55 °F (at 4:50 AM)
Average temperature yesterday: 66 °F

Past Weeks' High & Low Weather Summary

 TemperatureHumidityPressure
High79 °F (Aug 27, 4:50 PM)100% (Aug 17, 6:20 AM)30.18 "Hg (Aug 17, 6:20 AM)
Low48 °F (Aug 17, 6:20 AM)36% (Aug 27, 5:50 PM)29.80 "Hg (Aug 26, 4:20 PM)
Average62 °F78%30.01 "Hg
* Reported Aug 16 5:20 AM — Aug 31 5:50 AM, Klagenfurt, Weather by CustomWeather, © 2014

Note: Actual official high and low records may vary slightly from our data, if they occured in-between our weather recording intervals... More about our weather records

Advertising

Klagenfurt weather history for previous 24 hours

 ConditionsComfort  
Time TempWeatherWind HumidityBarometerVisibility
5:50 AM
Aug 31
61 °FPartly cloudy.2 mph94%30.04 "HgN/A
5:20 AM61 °FPartly cloudy.3 mph94%30.04 "HgN/A
4:50 AM61 °FPartly cloudy.1 mph94%30.04 "HgN/A
4:20 AM61 °FPartly cloudy.2 mph94%30.07 "HgN/A
3:50 AM61 °FPassing clouds.1 mph94%30.07 "HgN/A
3:20 AM61 °FPassing clouds.3 mph94%30.07 "HgN/A
2:50 AM61 °FPassing clouds.2 mph94%30.07 "HgN/A
2:20 AM61 °FRain. Passing clouds.2 mph94%30.09 "HgN/A
1:50 AM61 °FRain. Passing clouds.2 mph94%30.09 "Hg6 mi
1:20 AM61 °FRain. Passing clouds.3 mph94%30.09 "Hg4 mi
12:50 AM61 °FRain. Passing clouds.6 mph94%30.09 "HgN/A
12:20 AM61 °FHeavy rain. Partly cloudy.7 mph94%30.09 "Hg6 mi
11:50 PM
Aug 30
63 °FPassing clouds.6 mph94%30.09 "Hg6 mi
11:20 PM64 °FThundershowers. Partly cloudy.7 mph83%30.09 "HgN/A
10:50 PM64 °FThundershowers. Passing clouds.7 mph83%30.09 "HgN/A
10:20 PM64 °FPassing clouds.9 mph83%30.09 "HgN/A
9:50 PM66 °FPassing clouds.7 mph78%30.07 "HgN/A
9:20 PM66 °FPassing clouds.6 mph78%30.07 "HgN/A
8:50 PM66 °FPartly cloudy.5 mph78%30.07 "HgN/A
7:50 PM70 °FBroken clouds.7 mph64%30.04 "HgN/A
7:20 PM70 °FBroken clouds.8 mph64%30.04 "HgN/A
6:50 PM72 °FBroken clouds.9 mph61%30.04 "HgN/A
6:20 PM73 °FBroken clouds.6 mph57%30.04 "HgN/A
5:50 PM75 °FBroken clouds.9 mph54%30.04 "HgN/A
5:20 PM77 °FBroken clouds.6 mph54%30.04 "HgN/A
4:50 PM79 °FPartly sunny.3 mph48%30.04 "HgN/A
4:20 PM77 °FPartly sunny.5 mph51%30.04 "HgN/A
3:50 PM77 °FBroken clouds.5 mph54%30.04 "HgN/A
3:20 PM77 °FBroken clouds.5 mph57%30.04 "HgN/A
2:50 PM77 °FBroken clouds.5 mph57%30.07 "HgN/A
2:20 PM75 °FBroken clouds.3 mph54%30.07 "HgN/A
1:50 PM75 °FPartly sunny.2 mph57%30.07 "HgN/A
1:20 PM73 °FBroken clouds.3 mph61%30.07 "HgN/A
12:50 PM72 °FBroken clouds.2 mph65%30.09 "HgN/A
12:20 PM72 °FBroken clouds.2 mph69%30.09 "HgN/A
11:50 AM70 °FScattered clouds.3 mph69%30.09 "HgN/A
11:20 AM68 °FPartly sunny.2 mph73%30.09 "HgN/A
10:50 AM68 °FBroken clouds.1 mph73%30.12 "HgN/A
10:20 AM66 °FBroken clouds.1 mph78%30.12 "HgN/A
9:50 AM64 °FBroken clouds.1 mph83%30.12 "HgN/A
9:20 AM63 °FBroken clouds.1 mph83%30.12 "HgN/A
8:50 AM61 °FBroken clouds.1 mph88%30.12 "HgN/A
8:20 AM61 °FPartly sunny.1 mph88%30.09 "HgN/A
7:50 AM59 °FPartly sunny.2 mph94%30.09 "HgN/A
7:20 AM59 °FPartly sunny.2 mph88%30.12 "HgN/A
6:50 AM55 °FFog.1 mph100%30.09 "HgN/A
6:20 AM55 °FFog.1 mph100%30.09 "HgN/A
Weather by CustomWeather, © 2014

See weather overviewHow to use our weather pages